Previsão horária em Jurkow

Hoje, 19 Junho, Sábado

Tempo Temperatura Precipitação Vento Pressão Humidade
00:00 +18°C° 0 mm 2 m/s 745 mmHg 89%
01:00 +18°C° 0 mm 2 m/s 745 mmHg 91%
02:00 +17°C° 0 mm 2 m/s 745 mmHg 91%
03:00 +17°C° 0 mm 2 m/s 745 mmHg 91%
04:00 +16°C° 0 mm 2 m/s 745 mmHg 91%
05:00 +18°C° 0 mm 3 m/s 745 mmHg 86%
06:00 +20°C° 0 mm 3 m/s 745 mmHg 81%
07:00 +22°C° 0 mm 4 m/s 745 mmHg 76%
08:00 +23°C° 0 mm 4 m/s 745 mmHg 70%
09:00 +26°C° 0 mm 5 m/s 745 mmHg 65%
10:00 +27°C° 0 mm 5 m/s 745 mmHg 60%
11:00 +28°C° 0 mm 5 m/s 745 mmHg 58%
12:00 +28°C° 0 mm 5 m/s 744 mmHg 57%
13:00 +29°C° 0 mm 5 m/s 744 mmHg 55%
14:00 +29°C° 0 mm 5 m/s 744 mmHg 55%
15:00 +29°C° 0 mm 4 m/s 744 mmHg 56%
16:00 +29°C° 0 mm 4 m/s 743 mmHg 57%
17:00 +28°C° 0 mm 4 m/s 743 mmHg 64%
18:00 +26°C° 0 mm 4 m/s 743 mmHg 72%
19:00 +25°C° 0 mm 4 m/s 743 mmHg 79%
20:00 +22°C° 0 mm 3 m/s 743 mmHg 84%
21:00 +21°C° 0 mm 3 m/s 743 mmHg 88%
22:00 +19°C° 0 mm 2 m/s 743 mmHg 92%
23:00 +19°C° 0 mm 2 m/s 743 mmHg 93%

Amanhã, 20 Junho, Domingo

Tempo Temperatura Precipitação Vento Pressão Humidade
00:00 +18°C° 0 mm 2 m/s 743 mmHg 94%
01:00 +18°C° 0 mm 2 m/s 743 mmHg 95%
02:00 +17°C° 0 mm 2 m/s 743 mmHg 95%
03:00 +17°C° 0 mm 2 m/s 743 mmHg 96%
04:00 +17°C° 0 mm 2 m/s 743 mmHg 96%
05:00 +18°C° 0 mm 3 m/s 743 mmHg 90%
06:00 +19°C° 0 mm 4 m/s 743 mmHg 84%
07:00 +21°C° 0 mm 4 m/s 743 mmHg 77%
08:00 +22°C° 0 mm 4 m/s 743 mmHg 72%
09:00 +25°C° 0 mm 4 m/s 742 mmHg 67%
10:00 +26°C° 0 mm 5 m/s 742 mmHg 61%
11:00 +27°C° 0 mm 5 m/s 742 mmHg 59%
12:00 +28°C° 0 mm 5 m/s 742 mmHg 56%
13:00 +29°C° 0 mm 5 m/s 741 mmHg 54%
14:00 +29°C° 0 mm 5 m/s 741 mmHg 55%
15:00 +28°C° 0 mm 4 m/s 741 mmHg 56%
16:00 +28°C° 0 mm 4 m/s 740 mmHg 56%
17:00 +27°C° 0 mm 4 m/s 740 mmHg 63%
18:00 +26°C° 0 mm 3 m/s 740 mmHg 70%
19:00 +24°C° 0 mm 2 m/s 740 mmHg 77%
20:00 +23°C° 0 mm 2 m/s 740 mmHg 82%
21:00 +21°C° 0 mm 2 m/s 740 mmHg 87%
22:00 +20°C° 0 mm 2 m/s 740 mmHg 92%
23:00 +19°C° 0 mm 2 m/s 739 mmHg 92%

Depois de amanhã, 21 Junho, Segunda-feira

Tempo Temperatura Precipitação Vento Pressão Humidade
00:00 +19°C° 0 mm 2 m/s 739 mmHg 93%
01:00 +18°C° 0 mm 2 m/s 739 mmHg 94%
02:00 +18°C° 0 mm 2 m/s 739 mmHg 94%
03:00 +18°C° 0 mm 2 m/s 738 mmHg 95%
04:00 +18°C° 0 mm 3 m/s 738 mmHg 95%
05:00 +19°C° 0 mm 3 m/s 738 mmHg 89%
06:00 +21°C° 0 mm 3 m/s 738 mmHg 83%
07:00 +23°C° 0 mm 4 m/s 738 mmHg 77%
08:00 +25°C° 0 mm 4 m/s 738 mmHg 71%
09:00 +26°C° 0 mm 4 m/s 738 mmHg 65%
10:00 +28°C° 0 mm 3 m/s 738 mmHg 60%
11:00 +29°C° 0 mm 3 m/s 738 mmHg 57%
12:00 +29°C° 0 mm 3 m/s 738 mmHg 54%
13:00 +30°C° 0 mm 2 m/s 738 mmHg 51%
14:00 +30°C° 0 mm 2 m/s 738 mmHg 52%
15:00 +30°C° 0 mm 2 m/s 737 mmHg 52%
16:00 +30°C° 0 mm 3 m/s 737 mmHg 52%
17:00 +28°C° 0.1 mm 2 m/s 737 mmHg 61%
18:00 +27°C° 0.1 mm 2 m/s 737 mmHg 69%
19:00 +25°C° 0.1 mm 2 m/s 737 mmHg 77%
20:00 +24°C° 0.2 mm 2 m/s 738 mmHg 81%
21:00 +23°C° 0.2 mm 2 m/s 738 mmHg 84%
22:00 +20°C° 0.2 mm 2 m/s 738 mmHg 88%
23:00 +21°C° 0.1 mm 1 m/s 738 mmHg 88%

22 Junho, Terça-feira

Tempo Temperatura Precipitação Vento Pressão Humidade
00:00 +20°C° 0.1 mm 1 m/s 738 mmHg 89%
01:00 +20°C° 0.1 mm 1 m/s 738 mmHg 89%
02:00 +20°C° 0 mm 1 m/s 738 mmHg 90%
03:00 +20°C° 0 mm 1 m/s 738 mmHg 91%
04:00 +19°C° 0 mm 1 m/s 739 mmHg 92%
05:00 +21°C° 0 mm 1 m/s 739 mmHg 88%
06:00 +22°C° 0 mm 1 m/s 739 mmHg 84%
07:00 +24°C° 0 mm 1 m/s 740 mmHg 80%
08:00 +25°C° 0 mm 1 m/s 740 mmHg 75%
09:00 +27°C° 0 mm 1 m/s 740 mmHg 70%
10:00 +28°C° 0 mm 2 m/s 740 mmHg 65%
11:00 +28°C° 0.4 mm 2 m/s 740 mmHg 63%
12:00 +29°C° 0.4 mm 2 m/s 740 mmHg 61%
13:00 +30°C° 0.4 mm 2 m/s 740 mmHg 59%
14:00 +30°C° 0.3 mm 2 m/s 741 mmHg 59%
15:00 +30°C° 0.3 mm 2 m/s 741 mmHg 58%
16:00 +30°C° 0.3 mm 2 m/s 741 mmHg 58%
17:00 +29°C° 0.4 mm 2 m/s 741 mmHg 64%
18:00 +27°C° 0.4 mm 2 m/s 741 mmHg 70%
19:00 +26°C° 0.4 mm 1 m/s 741 mmHg 76%
20:00 +25°C° 0 mm 1 m/s 741 mmHg 78%
21:00 +24°C° 0 mm 1 m/s 741 mmHg 81%
22:00 +23°C° 0 mm 1 m/s 741 mmHg 84%
23:00 +22°C° 0 mm 1 m/s 741 mmHg 85%

23 Junho, Quarta-feira

Tempo Temperatura Precipitação Vento Pressão Humidade
00:00 +22°C° 0 mm 1 m/s 741 mmHg 86%
01:00 +21°C° 0 mm 1 m/s 741 mmHg 87%
02:00 +19°C° 0 mm 0 m/s 741 mmHg 88%
03:00 +19°C° 0 mm 0 m/s 741 mmHg 88%
04:00 +19°C° 0 mm 0 m/s 742 mmHg 89%
05:00 +22°C° 0 mm 1 m/s 742 mmHg 85%
06:00 +24°C° 0 mm 1 m/s 742 mmHg 81%
07:00 +25°C° 0 mm 2 m/s 742 mmHg 77%
08:00 +27°C° 0 mm 2 m/s 742 mmHg 71%
09:00 +28°C° 0 mm 2 m/s 742 mmHg 65%
10:00 +30°C° 0 mm 2 m/s 742 mmHg 60%
11:00 +30°C° 0 mm 2 m/s 742 mmHg 57%
12:00 +31°C° 0 mm 2 m/s 742 mmHg 54%
13:00 +32°C° 0 mm 2 m/s 742 mmHg 51%
14:00 +32°C° 0 mm 2 m/s 742 mmHg 51%
15:00 +32°C° 0 mm 2 m/s 742 mmHg 50%
16:00 +32°C° 0 mm 2 m/s 742 mmHg 50%
17:00 +31°C° 0 mm 2 m/s 742 mmHg 58%
18:00 +29°C° 0 mm 2 m/s 741 mmHg 66%
19:00 +28°C° 0 mm 3 m/s 741 mmHg 74%
20:00 +26°C° 0 mm 3 m/s 741 mmHg 76%
21:00 +25°C° 0 mm 3 m/s 741 mmHg 79%
22:00 +24°C° 0 mm 3 m/s 741 mmHg 82%
23:00 +24°C° 0 mm 2 m/s 741 mmHg 84%

24 Junho, Quinta-feira

Tempo Temperatura Precipitação Vento Pressão Humidade
00:00 +23°C° 0 mm 2 m/s 741 mmHg 87%
01:00 +23°C° 0 mm 2 m/s 741 mmHg 90%
02:00 +21°C° 0 mm 2 m/s 741 mmHg 90%
03:00 +22°C° 0 mm 1 m/s 741 mmHg 91%
04:00 +22°C° 0 mm 1 m/s 741 mmHg 91%
05:00 +21°C° 0.4 mm 2 m/s 742 mmHg 89%
06:00 +22°C° 0.4 mm 4 m/s 743 mmHg 87%
07:00 +22°C° 0.4 mm 6 m/s 743 mmHg 85%
08:00 +23°C° 0.4 mm 5 m/s 744 mmHg 80%
09:00 +25°C° 0.4 mm 5 m/s 744 mmHg 75%
10:00 +25°C° 0.4 mm 5 m/s 745 mmHg 69%
11:00 +26°C° 0.1 mm 5 m/s 745 mmHg 66%
12:00 +27°C° 0.1 mm 4 m/s 745 mmHg 62%
13:00 +28°C° 0.1 mm 4 m/s 745 mmHg 59%
14:00 +28°C° 0 mm 4 m/s 745 mmHg 58%
15:00 +28°C° 0 mm 4 m/s 745 mmHg 57%
16:00 +28°C° 0 mm 4 m/s 745 mmHg 56%
17:00 +26°C° 0 mm 4 m/s 745 mmHg 61%
18:00 +25°C° 0 mm 3 m/s 745 mmHg 67%
19:00 +24°C° 0 mm 2 m/s 745 mmHg 72%
20:00 +23°C° 0 mm 2 m/s 745 mmHg 75%
21:00 +21°C° 0 mm 2 m/s 746 mmHg 77%
22:00 +19°C° 0 mm 2 m/s 746 mmHg 79%
23:00 +19°C° 0 mm 2 m/s 746 mmHg 82%
Mostrar mais

Necessitamos do seu Consentimento

A Meteoprog e os seus Fornecedores de Serviços podem armazenar e aceder a dados pessoais como cookies, identificadores do dispositivo ou outras tecnologias semelhantes existentes no seu dispositivo e processar estes dados para personalizar conteúdos e anúncios, assim como funcionalidades nas redes sociais e análise de tráfego.

  • Armazenar e/ou aceder a informações no seu dispositivo

    Os cookies, identificadores do dispositivo ou outras informações podem ser armazenados ou acedidos no seu dispositivo, para os fins acima indicados.

  • Anúncios e conteúdos personalizados, medição de anúncios e conteúdos, dados sobre o público-alvo e desenvolvimento de produtos

    Os anúncios e os conteúdos podem ser personalizados com base num perfil. Podem ser adicionados dados adicionais para uma maior personalização dos anúncios e dos conteúdos. A eficácia dos anúncios e dos conteúdos pode ser medida. Podem ser obtidas informações sobre o público que visualizou os anúncios e os conteúdos. Estes dados podem ser usados para desenvolver ou melhorar sistemas, softwares ou a experiência do utilizador.

Ao clicar em "Eu concordo”, permitirá o uso de cookies, identificadores do dispositivo e web beacons mencionados ou outras tecnologias semelhantes. As configurações do navegador do seu dispositivo podem ser alteradas.

Para certos fins, podem ser invocados interesses legítimos ao invés de consentimento. Pode ler mais informação sobre este assunto na nossa Política de Privacidade e Cookies.